"Pseudo-MPEC" for C1RUQK2

Created 2020 Jan 15 20:07:06 UT using Find_Orb

Click here for an explanation of pseudo-MPECs

 
 Astrometry: 
     C1RUQK2  C2020 01 01Dj]!MH+/f!AstrometryV*sGTI,0e*a#XI`c$4eXIX+q=:M)o*ghF51
     C1RUQK2  C2020 01 01+)BTj,ttHw,q]oPK[R)*d4!'(NeQ2R?r6HTJw:B50r`k$Dui2PJ;F51
     C1RUQK2  C2020 01 01XilEvf=f(CF*DTUunQd$#%oredacted;'IDJ[clicktOPSrCxncoF51
     C1RUQK2  C2020 01 01ZE8O6Z^2hereOforivSl!#N$GR`v'6)3[HvP]ABexplanationcKF51
     C1RUQK2  C2020 01 14.29512 08 13 24.70 +53 16 47.0    ~1E7q 19.4 GVNEOCPG96
     C1RUQK2  C2020 01 14.30039 08 13 21.32 +53 17 57.1    ~1E7q 19.6 GVNEOCPG96
     C1RUQK2  C2020 01 14.30566 08 13 17.89 +53 19 07.2    ~1E7q 20.0 GVNEOCPG96
     C1RUQK2  C2020 01 14.31091 08 13 14.61 +53 20 16.5    ~1E7q 19.7 GVNEOCPG96
     C1RUQK2  C2020 01 14.32423008 13 05.05 +53 23 09.3    ~1E8M 19.3 GVNEOCPH01
     C1RUQK2  C2020 01 14.32755708 13 02.89 +53 23 53.0    ~1E8M 19.4 GVNEOCPH01
     C1RUQK2  C2020 01 14.33982508 12 54.95 +53 26 35.0    ~1E8M 19.5 GVNEOCPH01
     C1RUQK2  C2020 01 14.34465408 12 51.80 +53 27 38.7    ~1E8M 19.5 GVNEOCPH01
     C1RUQK2  C2020 01 14.38097 08 12 28.85 +53 35 44.0    ~1E9M 19.8 GVNEOCPI52
     C1RUQK2  C2020 01 14.38153 08 12 28.46 +53 35 51.2    ~1E9M 19.6 GVNEOCPI52
     C1RUQK2  C2020 01 14.38210 08 12 28.05 +53 35 58.7    ~1E9M 19.8 GVNEOCPI52
     C1RUQK2  C2020 01 14.38267 08 12 27.72 +53 36 06.0    ~1E9M 19.2 GVNEOCPI52
     C1RUQK2  C2020 01 15.26350 08 01 48.47 +57 27 34.7    ~1F77 19.4 GVNEOCPG96
     C1RUQK2  C2020 01 15.26439 08 01 47.50 +57 27 51.3    ~1F77 19.2 GVNEOCPG96
     C1RUQK2  C2020 01 15.27988 08 01 30.55 +57 32 42.8    ~1F77 19.6 GVNEOCPG96
     C1RUQK2  C2020 01 15.34898 08 00 12.25 +57 54 26.5    ~1F8q 19.5 GVNEOCPI52
     C1RUQK2  C2020 01 15.34933 08 00 11.78 +57 54 34.2    ~1F8q 19.8 GVNEOCPI52
     C1RUQK2  C2020 01 15.34969 08 00 11.34 +57 54 40.8    ~1F8q 20.1 GVNEOCPI52
     C1RUQK2  C2020 01 15.35041 08 00 10.59 +57 54 55.1    ~1F8q 19.6 GVNEOCPI52
     C1RUQK2  C2020 01 15.35149 08 00 09.35 +57 55 14.8    ~1F8q 19.8 GVNEOCPI52

Station data:
(F51) Pan-STARRS 1, Haleakala  (N20.707235 W156.255910)  US/Hawaii.
   Observers N. Primak, A. Schultz, S. Watters, J. Thiel, T. Goggia. Measurer
   PS1 Science Consortium. 1.8-m Ritchey-Chrétien + CCD.
(G96) Mt. Lemmon Survey  (N32.442754 W110.788720)  US/Arizona.  Observers T.
   A. Pruyne, B. M. Africano, E. J. Christensen, G. A. Farneth, D. C. Fuls,
   A. R. Gibbs, A. D. Grauer, H. Gröller, J. A. Johnson, R. A. Kowalski, S.
   M. Larson, G. J. Leonard, D. Rankin, R. L. Seaman, F. C. Shelly. 1.5-m
   reflector + 10K CCD.
(H01) Magdalena Ridge Observatory, Socorro  (N33.984833 W107.189333)  US/New
   Mexico.  Observers W. H. Ryan, E. V. Ryan. Measurer W. H. Ryan. 2.4-m
   f/8.9 reflector + CCD.
(I52) Steward Observatory, Mt. Lemmon Station  (N32.442547 W110.788920)
   US/Arizona.  Observers T. A. Pruyne, B. M. Africano, E. J. Christensen, G.
   A. Farneth, D. C. Fuls, A. R. Gibbs, A. D. Grauer, H. Gröller, J. A.
   Johnson, R. A. Kowalski, S. M. Larson, G. J. Leonard, D. Rankin, R. L.
   Seaman, F. C. Shelly. 1.0-m reflector + CCD.

Orbital elements:  C1RUQK2
   Perihelion 2020 Mar 13.443481 +/- 0.0531 TT = 10:38:36 (JD 2458921.943481)
Epoch 2020 Jan 15.0 TT = JDT 2458863.5   Earth MOID: 0.0161   Ve: 0.0071
M 318.20774082 +/- 0.12             (J2000 ecliptic)          AutoNEOCP
n   0.71508847 +/- 0.00147          Peri.  275.56748 +/- 0.0013
a   1.23850053 +/- 0.00169          Node   303.81477 +/- 0.0011
e   0.5432815 +/- 0.00105           Incl.    8.69320 +/- 0.017
P   1.38/503.42d           H 25.0   G  0.15   U  8.4  
q 0.56564599 +/- 0.000534    Q 1.91135506 +/- 0.00393
From 24 observations 2020 Jan. 1-15; mean residual 0".27
Residuals in arcseconds: 
200101 F51  .10+  .02+    200114 H01  .03+  .25+    200115 G96  .14+  .11+    
200101 F51  .05+  .16-    200114 H01  .08-  .07+    200115 G96  .10+  .02-    
200101 F51  .12+  .15+    200114 H01  .03+  .24+    200115 G96  .09+  .06+    
200101 F51  .19-  .02+    200114 H01  .04-  .24+    200115 I52  .22+  .85-    
200114 G96  .39+  .60-    200114 I52  .05+  .15+    200115 I52  .29-  .22+    
200114 G96  .07+  .25-    200114 I52  .12-  .06-    200115 I52  .46-  .01+    
200114 G96  .58-  .10+    200114 I52  .41-  .10-    200115 I52  .23+  .68+    
200114 G96  .12+  .09-    200114 I52  .01+  .35-    200115 I52  .35+  .07-    

Ephemerides (geocentric):
Date (UTC) HH   RA              Dec         delta   r     elong  mag " sig PA
---- -- -- --  -------------   -----------  ------ ------ -----  --- ---- ---
2020 01 15 20  07 50 15.706   +60 42 09.40  .03957 1.0144 140.4 19.6 .269  43
2020 01 15 21  07 49 12.380   +60 58 16.27  .03921 1.0140 140.2 19.6 .280  45
2020 01 15 22  07 48 06.745   +61 14 39.35  .03884 1.0136 139.9 19.5 .291  46
2020 01 15 23  07 46 58.674   +61 31 18.93  .03847 1.0132 139.6 19.5 .302  47
2020 01 16 00  07 45 48.035   +61 48 15.30  .03811 1.0128 139.3 19.5 .314  48
2020 01 16 01  07 44 34.683   +62 05 28.76  .03774 1.0124 139.0 19.5 .326  49
2020 01 16 02  07 43 18.464   +62 22 59.59  .03738 1.0120 138.7 19.5 .339  50
2020 01 16 03  07 41 59.212   +62 40 48.06  .03702 1.0116 138.4 19.5 .352  51
2020 01 16 04  07 40 36.749   +62 58 54.46  .03666 1.0112 138.1 19.5 .365  52
2020 01 16 05  07 39 10.882   +63 17 19.04  .03630 1.0108 137.8 19.4 .379  53
2020 01 16 06  07 37 41.404   +63 36 02.05  .03595 1.0104 137.4 19.4 .393  54
2020 01 16 07  07 36 08.091   +63 55 03.74  .03559 1.0100 137.1 19.4 .408  55
2020 01 16 08  07 34 30.702   +64 14 24.32  .03524 1.0096 136.8 19.4 .423  56
2020 01 16 09  07 32 48.973   +64 34 03.99  .03488 1.0092 136.4 19.4 .439  57
2020 01 16 10  07 31 02.621   +64 54 02.94  .03453 1.0088 136.0 19.4 .455  58
2020 01 16 11  07 29 11.337   +65 14 21.30  .03418 1.0084 135.7 19.4 .472  58
2020 01 16 12  07 27 14.788   +65 34 59.19  .03383 1.0080 135.3 19.4 .489  59
2020 01 16 13  07 25 12.608   +65 55 56.68  .03349 1.0076 134.9 19.3 .506  60
2020 01 16 14  07 23 04.402   +66 17 13.80  .03314 1.0072 134.5 19.3 .525  61
2020 01 16 15  07 20 49.737   +66 38 50.52  .03280 1.0067 134.1 19.3 .544  61
2020 01 16 16  07 18 28.140   +67 00 46.75  .03246 1.0063 133.7 19.3 .564  62
2020 01 16 17  07 15 59.097   +67 23 02.33  .03212 1.0059 133.3 19.3 .584  62
2020 01 16 18  07 13 22.042   +67 45 37.00  .03178 1.0055 132.9 19.3 .605  63
2020 01 16 19  07 10 36.357   +68 08 30.42  .03145 1.0051 132.4 19.3 .627  63
2020 01 16 20  07 07 41.364   +68 31 42.13  .03112 1.0047 132.0 19.3 .649  64
2020 01 16 21  07 04 36.318   +68 55 11.52  .03078 1.0043 131.5 19.3 .673  64
2020 01 16 22  07 01 20.402   +69 18 57.87  .03046 1.0039 131.0 19.2 .697  65
2020 01 16 23  06 57 52.717   +69 43 00.23  .03013 1.0035 130.5 19.2 .722  65
2020 01 17 00  06 54 12.275   +70 07 17.50  .02981 1.0031 130.1 19.2 .749  65
2020 01 17 01  06 50 17.987   +70 31 48.29  .02948 1.0027 129.6 19.2 .776  65
2020 01 17 02  06 46 08.659   +70 56 30.99  .02916 1.0023 129.0 19.2 .804  66
2020 01 17 03  06 41 42.976   +71 21 23.65  .02885 1.0019 128.5 19.2 .833  66
2020 01 17 04  06 36 59.495   +71 46 23.94  .02853 1.0015 128.0 19.2 .864  66
2020 01 17 05  06 31 56.633   +72 11 29.15  .02822 1.0011 127.4 19.2 .896  65
2020 01 17 06  06 26 32.660   +72 36 36.07  .02792 1.0007 126.9 19.2 .929  65
2020 01 17 07  06 20 45.691   +73 01 40.93  .02761 1.0003 126.3 19.2 .963  65
2020 01 17 08  06 14 33.679   +73 26 39.34  .02731 0.9999 125.7 19.1 1.00  65
2020 01 17 09  06 07 54.423   +73 51 26.18  .02701 0.9995 125.1 19.1 1.04  64
2020 01 17 10  06 00 45.568   +74 15 55.50  .02671 0.9991 124.5 19.1 1.07  63
2020 01 17 11  05 53 04.633   +74 40 00.44  .02642 0.9987 123.8 19.1 1.11  63
2020 01 17 12  05 44 49.038   +75 03 33.06  .02613 0.9982 123.2 19.1 1.16  62
2020 01 17 13  05 35 56.166   +75 26 24.31  .02585 0.9978 122.5 19.1 1.20  61
2020 01 17 14  05 26 23.440   +75 48 23.86  .02557 0.9974 121.8 19.1 1.24  59
2020 01 17 15  05 16 08.439   +76 09 20.02  .02529 0.9970 121.1 19.1 1.29  58
2020 01 17 16  05 05 09.051   +76 28 59.73  .02502 0.9966 120.4 19.1 1.34  56
2020 01 17 17  04 53 23.666   +76 47 08.52  .02475 0.9962 119.7 19.1 1.39  54
2020 01 17 18  04 40 51.409   +77 03 30.61  .02448 0.9958 119.0 19.1 1.44  52
2020 01 17 19  04 27 32.406   +77 17 49.06  .02422 0.9954 118.2 19.1 1.50  50